Printer-friendly version

IAU Minor Planet Center

Minor Planet Center

MPEC 2005-N47 : COMET C/2005 H1 (LINEAR)

The following Minor Planet Electronic Circular may be linked-to from your own Web pages, but must not otherwise be redistributed electronically.


Read MPEC 2005-N46 Read MPEC 2005-N48


M.P.E.C. 2005-N47                                Issued 2005 July 11, 00:04 UT

     The Minor Planet Electronic Circulars contain information on unusual
         minor planets and routine data on comets.  They are published
   on behalf of Commission 20 of the International Astronomical Union by the
          Minor Planet Center, Smithsonian Astrophysical Observatory,
                          Cambridge, MA 02138, U.S.A.

                  Supported in part by the Brinson Foundation
             Prepared using the Tamkin Foundation Computer Network

                              MPC@CFA.HARVARD.EDU
          URL http://cfa-www.harvard.edu/iau/mpc.html  ISSN 1523-6714

                           COMET C/2005 H1 (LINEAR)

Observations:
    CK05H010  C2005 07 06.16980 16 02 34.60 +40 02 02.2          19.3 T EN047699
    CK05H010  C2005 07 06.19173 16 02 33.62 +40 01 46.5                 EN047699
    CK05H010  C2005 07 06.21366 16 02 32.68 +40 01 27.3                 EN047699
    CK05H010  C2005 07 06.23562 16 02 31.78 +40 01 10.4                 EN047699
    CK05H010  C2005 07 09.18912 16 00 32.48 +39 20 25.3          19.0 T EN047673
    CK05H010  C2005 07 09.19699 16 00 32.19 +39 20 18.3                 EN047673
    CK05H010  C2005 07 09.20417 16 00 31.94 +39 20 11.8                 EN047673

Observer details:
673 Table Mountain Observatory, Wrightwood.  Observer J. Young.  0.6-m
    reflector + CCD.
699 Lowell Observatory-LONEOS.  Observer B. A. Skiff.  0.59-m LONEOS Schmidt
    + CCD.

Orbital elements:
    C/2005 H1 (LINEAR)
T 2004 Oct. 28.4702 TT                                  MPC
q   4.768348             (2000.0)            P               Q
z  +0.021635       Peri.   95.2046      -0.1682043      -0.3034148
                   Node    71.4929      -0.4279062      -0.8346584
e   0.896836       Incl.   81.5109      +0.8880336      -0.4596574
From 146 observations 2005 Apr. 30-July 9.

Brian G. Marsden             (C) Copyright 2005 MPC           M.P.E.C. 2005-N47

Read MPEC 2005-N46 Read MPEC 2005-N48


Our Web policy. Index to the CBAT/MPC/ICQ pages.


Valid HTML 4.01!